Regional Weather Roundup
Issued by NWS Upton, NY

Current Version | Previous Version | Graphics & Text | Print | Product List | Glossary Off
Versions: 1 2 3 4 5 6 7 8 9 10 11 12 13 14 15 16 17 18 19 20 21 22 23 24 25 26 27

000
ASUS41 KOKX 222108
RWROKX

Regional Weather Roundup
National Weather Service New York NY
400 PM EST MON JAN 22 2018

Note: "FAIR" indicates few or no clouds below 12,000 feet with no
significant weather and/or obstructions to visibility.

NYZ071-072-176-178-NJZ106-104-222200-
New York City Metro Area

CITY           SKY/WX    TMP DP  RH WIND       PRES   REMARKS
Central Park   CLOUDY    45  39  79 E8        30.16R
Bronx Bot Gard   N/A     41  37  87 NE9       30.16R
Bronx Lehman C   N/A     41  37  87 E14         N/A
LaGuardia Arpt CLOUDY    42  37  82 NE12      30.13S
Queens College   N/A     46  39  76 NE5         N/A
Kennedy Intl   CLOUDY    48  42  80 E8        30.14R
Breezy Point     N/A     41 N/A N/A SE8         N/A
Brooklyn Coll    N/A     48  39  71 E3          N/A
Staten Island    N/A     48  39  71 SE5         N/A
Newark/Liberty CLOUDY    49  40  71 VRB3      30.13R
Teterboro      CLOUDY    44  39  82 E7G18     30.13R FOG
$$

NYZ177-179-078>081-222200-
Long Island New York

CITY           SKY/WX    TMP DP  RH WIND       PRES   REMARKS
Jones Beach      N/A     43 N/A N/A E8          N/A
Wantagh          N/A     43  39  87 E6          N/A
Matinecock Pt    N/A     37 N/A N/A E20         N/A  WCI  27
Farmingdale    CLOUDY    46  40  79 E5        30.14S
MacArthur/ISP  CLOUDY    50  42  74 NE6       30.14S
Shirley        CLOUDY    47  42  83 CALM      30.15F
Mt Sinai Harb    N/A    N/A N/A N/A E6          N/A
Westhampton    MOCLDY    42  36  79 NE6       30.18S
East Hampton   CLOUDY    39  37  89 NE8       30.17S WCI  34
Southold         N/A     39  36  87 E15         N/A  WCI  31
Montauk          N/A     41  37  86 NE12G17   30.19S
$$

NYZ052-065-067-222200-
Hudson Valley

CITY           SKY/WX    TMP DP  RH WIND       PRES   REMARKS
White Plains   MOCLDY    43  39  86 E10       30.12S FOG
Larchmont Harb   N/A     36 N/A N/A NE18        N/A  WCI  25
Croton On Huds   N/A     43 N/A N/A MISG        N/A
Somers           N/A     41  39  93 E3          N/A
Brewster         N/A     39  37  93 E5          N/A
Newburgh       CLOUDY    39  39 100 VRB5      30.13F FOG
Montgomery     CLOUDY    39  35  86 N6        30.11S FOG     WCI  35
Otisville        N/A     37  36  93 NE3         N/A
Warwick          N/A     43  39  87 NW2         N/A
Suffern          N/A     45  39  81 E2          N/A
Poughkeepsie   CLOUDY    39  34  82 NW3       30.13F HAZE
Albany         LGT RAIN  34  28  79 E3        30.14F
$$

NJZ001-105-106-008-010-013-015-019>022-104-222200-
New Jersey

CITY           SKY/WX    TMP DP  RH WIND       PRES   REMARKS
Newark/Liberty CLOUDY    49  40  71 VRB3      30.13R
Teterboro      CLOUDY    44  39  82 E7G18     30.13R FOG
Caldwell       CLOUDY    46  40  79 SE9       30.13R HAZE
Somerville     CLOUDY    51  41  68 SE6       30.10R HAZE
Linden         CLOUDY    48  38  69 CALM      30.12S
Perth Amboy      N/A     41 N/A N/A E10         N/A
Sussex         CLOUDY    42  38  85 N8        30.11R FOG
Andover          N/A     44  39  82 NE5       30.10R
Trenton        FAIR      54  41  61 E3        30.09S
Millville      FAIR      61  43  51 S5        30.09S
Atlantic City  FAIR      58  43  57 S8        30.10S
Wrightstown    FAIR      60  43  52 S5        30.06S
Toms River     MOCLDY    59  43  55 VRB5      30.11S
Belmar         MOCLDY    46  39  76 E7        30.13R
$$

PAZ047>061-062-071-222200-
Eastern Pennsylvania

CITY           SKY/WX    TMP DP  RH WIND       PRES   REMARKS
Philadelphia   CLOUDY    60  42  51 E5        30.08S
Allentown      CLOUDY    51  41  68 NE6       30.08R
Scranton       CLOUDY    43  43 100 E3        30.03F FOG
$$

CTZ002-004>006-009-010-012-RIZ004-006-007-MAZ004-011-015-222200-
Southern New England

 In CT

CITY           SKY/WX    TMP DP  RH WIND       PRES   REMARKS
Bradley Intl   CLOUDY    38  37  97 N7        30.20R FOG     WCI  33
Hartford       CLOUDY    39  37  92 N7        30.20S FOG     WCI  34
Danbury        CLOUDY    41  38  89 E7        30.16S FOG
Wtrbury/Oxford LGT RAIN  37  37 100 NE6       30.16S VSB 3/4 WCI  32
Norwalk Harbor   N/A     37 N/A N/A NE15        N/A  WCI  28
Bridgeport     CLOUDY    40  36  86 E12       30.16F FOG     WCI  33
Meriden        CLOUDY    39  36  89 N7        30.18F FOG     WCI  34
New Haven      CLOUDY    45  38  76 E5        30.16F
Chester        CLOUDY    43  39  87 VRB5      30.17F
Groton         CLOUDY    43  36  76 NE12      30.19S
Willimantic    CLOUDY    39  37  92 E9        30.22R FOG     WCI  33

 In RI

CITY           SKY/WX    TMP DP  RH WIND       PRES   REMARKS
Providence     CLOUDY    39  38  96 NE9       30.23F FOG     WCI  33
Block Island   CLOUDY    38  37  97 NE14      30.21S WCI  30
Westerly       CLOUDY    42  39  89 NE10      30.21S FOG

In MA

CITY           SKY/WX    TMP DP  RH WIND       PRES   REMARKS
Boston         CLOUDY    38  36  92 N7        30.27R FOG     WCI  33
Worcester      MIX PCPN  32  30  92 NE8       30.20F VSB<1/4 WCI  25
Westfield      CLOUDY    36  36 100 N6        30.21R FOG     WCI  31
Provincetown   CLOUDY    39  36  89 NE6       30.27F WCI  35
Nantucket      CLOUDY    40  40 100 NE8       30.24R WCI  34
$$

ANZ330-335-338-340-345-350-353-355-222200-
Coastal Marine Observations


STATION/POSITION TIME  SKY/WX   TEMP    WIND        PRES    VSBY  WAVE
                                AIR SEA DIR/SP/G                  HT/PER
                 (UTC)          (F)     (DEG/KT/KT) (MB)    (MI)  (FT/S)
NY Harb Entrance 1950            42 41   90/  6/  8 1020.0          2/ 5
20 S Fire Island 1950            43 42  110/  6/  6 1020.8          2/ 6
15 E Barnegat Li 2030               43                N/A           2/11
Hudson Canyon    1950            51 50   CALM  /  2 1020.8          2/10
Kings Point      2036            43 34   90/  5/  8 1021.1
Execution Rocks  NOT AVBL
Western LI Sound NOT AVBL
Central LI Sound 2015            39      80/ 14/ 16   N/A           1
Robbins Reef     2048            45      50/ 10/ 10 1020.7
$$


>>>>>>>>>>>>>>>>>>>>>>>>>>>> KEY <<<<<<<<<<<<<<<<<<<<<<<<<<<
>                                                          <
>     SKY/WX - Sky Condition/Present Weather               <
>     TMP    - Temperature in Fahrenheit                   <
>     DP     - Dew Point in Fahrenheit                     <
>     RH     - Relative Humidity in Percent                <
>     WIND   - Direction (from) and Speed in MPH           <
>     PRES   - Mean Sea Level Pressure (inches of Hg)      <
>     WCI    - Wind Chill Index                            <
>     VSB    - Visibility in Miles                         <
>     HX     - Heat Index                                  <
>     TC     - Temperature in Celsius                      <
>     VRB    - Varibale Wind Direction                     <
>                                                          <
>>>>>>>>>>>>>>>>>>>>>>>>>>>> KEY <<<<<<<<<<<<<<<<<<<<<<<<<<<




USA.gov is the U.S. government's official web portal to all federal, state and local government web resources and services.